sat.trackr.live / text

‹ back to catalog

VRSS-2

NORAD 42954 · 2017-060A

PAYLOAD ACTIVE UNKNOWN

§ Identity

Operator
Country
VENZ
Launch date
2017-10-09
Launch site
JSC
Launch vehicle
Mass (kg)
RCS (m²)

External: N2YO · Heavens-Above · Gunter

§ Orbital elements

Epoch: 2026-09-20T05:36:15.236352Z

Period
97.23 min
Inclination
98.0229°
Eccentricity
0.0019961
Mean motion
14.80977328 rev/d
Perigee alt
612.3 km
Apogee alt
640.2 km
Semi-major
7,004.4 km
B*
-3.2144e-4
RAAN
297.0605°
Arg perigee
141.3694°
Mean anomaly
218.8950°
Rev number
48,252

§ Raw data

VRSS-21 42954U 17060A   26263.23350968 -.00002550  00000+0 -32144-3 0  99932 42954  98.0229 297.0605 0019961 141.3694 218.8950 14.80977328482522

JSON: /api/v1/satellites/42954 · /tle

For live sub-satellite position, see the globe view (requires WebGL).

§ Visibility from observer

Set your observer location to see the next 7 days of passes ≥ 10°. The values pass through the URL so the page stays shareable.

No JS? Fill the form by hand. The geolocation button needs JavaScript.

§ Radio — SatNOGS DB

ModeDescriptionDownlinkUplink
FM S-band telemetry 2.250 GHz

1 transmitter · refreshed weekly from db.satnogs.org